User: anonymous   Login
Location: Unspecified
(0.0000°N, 0.0000°E)
Time: 01:02:49
(UTC+00:00)
Language:

TOPSAT - Orbit

View from above orbital plane
View from above orbital plane
View from above satellite
View from above satellite

Ground track
Ground track

The orbit data is extracted from the following two-line orbital elements,

1 28891U 05043B   21023.60003353 -.00000138  00000-0 -18530-4 0  9993
2 28891  98.0608 153.1680 0016577 342.2877  17.7735 14.61455987812612
Epoch (UTC): 23 January 2021 14:24:02
Eccentricity: 0.0016577
inclination: 98.0608°
perigee height: 677 km
apogee height: 700 km
right ascension of ascending node: 153.1680°
argument of perigee: 342.2877°
revolutions per day: 14.61455987
mean anomaly at epoch: 17.7735°
orbit number at epoch: 81261

The dashed part of the orbit path shows where the satellite is in the earth's shadow,  

DLR